Location: Azul
(36.7830°S, 59.8500°W)
Time: 00:52:29
(UTC-03:00)

ISS - Pass Details

Date: 28 June 2017
Orbit: 401 x 408 km, 51.6° (Epoch: 29 June)

Event Time Altitude Azimuth Distance (km) Brightness Sun altitude
Rises 18:41:53 0° 337° (NNW) 2,324 0.8 -9.7°
Reaches altitude 10° 18:44:09 10° 350° (N) 1,471 -0.6 -10.2°
Maximum altitude 18:46:58 26° 49° (NE) 852 -2.5 -10.7°
Enters shadow 18:48:48 16° 95° (E) 1,159 -2.1 -11.0°
